Location: Gisborne
(38.6530°S, 178.0040°E)
Time: 06:30:58
(UTC+13:00)

Cosmos 1825 - Pass Details

Date: 24 January 2019
Orbit: 505 x 509 km, 82.5° (Epoch: 18 February)

Event Time Altitude Azimuth Distance (km) Brightness Sun altitude
Rises 20:57:25 0° 187° (S) 2,650 6.4 -5.6°
Reaches altitude 10° 20:59:34 10° 186° (S) 1,754 5.5 -6.0°
Maximum altitude 21:03:25 86° 98° (E) 522 2.2 -6.6°
Drops below altitude 10° 21:07:13 10° 8° (N) 1,726 4.5 -7.3°
Sets 21:09:19 0° 7° (N) 2,603 5.4 -7.6°
